This is the latest recevied weather packets stored in our database for station/object KA1AL. If no packets are shown the sender has not sent any weather packets the latest 1 day(s).
| Time | Temp. | Humidity | Pressure | Rain* | Wind** | Luminosity | Snow |
|---|---|---|---|---|---|---|---|
| 1778029068 | 13.89° C | 99% | 1006.2 hPa | 0 mm | 0 m/s | 0 W/m² | - |
| 1778028765 | 13.89° C | 99% | 1006.2 hPa | 0 mm | 0.45 m/s, 147° | 0 W/m² | - |
| 1778028461 | 13.89° C | 99% | 1006.3 hPa | 0 mm | 0 m/s | 0 W/m² | - |
| 1778028159 | 13.89° C | 99% | 1006.5 hPa | 0 mm | 0.45 m/s, 211° | 0 W/m² | - |
| 1778027854 | 13.89° C | 99% | 1006.3 hPa | 0 mm | 0.45 m/s, 193° | 0 W/m² | - |
| 1778027551 | 13.89° C | 99% | 1006.2 hPa | 0 mm | 1.79 m/s, 204° | 0 W/m² | - |
| 1778027247 | 13.89° C | 99% | 1006.1 hPa | 0 mm | 2.68 m/s, 155° | 0 W/m² | - |
| 1778026943 | 13.89° C | 99% | 1006.4 hPa | 0 mm | 0.89 m/s, 217° | 0 W/m² | - |
| 1778026639 | 13.89° C | 99% | 1006.2 hPa | 0 mm | 1.34 m/s, 208° | 0 W/m² | - |
| 1778026337 | 13.89° C | 99% | 1006.2 hPa | 0 mm | 1.79 m/s, 246° | 0 W/m² | - |
| 1778026034 | 13.89° C | 99% | 1005.7 hPa | 0 mm | 0.89 m/s, 253° | 0 W/m² | - |
| 1778025732 | 13.89° C | 99% | 1005.6 hPa | 1.78 mm | 0.89 m/s, 233° | 0 W/m² | - |
| 1778025429 | 14.44° C | 99% | 1005.6 hPa | 1.78 mm | 0.89 m/s, 263° | 0 W/m² | - |
| 1778025126 | 14.44° C | 99% | 1005.9 hPa | 1.27 mm | 2.24 m/s, 229° | 0 W/m² | - |
| 1778024823 | 14.44° C | 99% | 1006.1 hPa | 1.27 mm | 1.79 m/s, 209° | 0 W/m² | - |
| 1778024520 | 13.89° C | 99% | 1006.1 hPa | 0 mm | 1.34 m/s, 225° | 0 W/m² | - |
| 1778024216 | 14.44° C | 99% | 1006 hPa | 0 mm | 1.34 m/s, 228° | 1 W/m² | - |
| 1778023914 | 14.44° C | 99% | 1005.7 hPa | 0 mm | 2.68 m/s, 217° | 0 W/m² | - |
| 1778023606 | 14.44° C | 99% | 1005.8 hPa | 0 mm | 2.24 m/s, 220° | 2 W/m² | - |
| 1778023303 | 14.44° C | 99% | 1005.6 hPa | 0 mm | 1.79 m/s, 237° | 3 W/m² | - |
| 1778023000 | 14.44° C | 99% | 1005.7 hPa | 3.05 mm | 1.79 m/s, 217° | 3 W/m² | - |
| 1778022699 | 14.44° C | 99% | 1005.7 hPa | 4.83 mm | 1.79 m/s, 221° | 2 W/m² | - |
| 1778022396 | 14.44° C | 99% | 1005.6 hPa | 3.05 mm | 3.13 m/s, 266° | 1 W/m² | - |
| 1778022092 | 14.44° C | 99% | 1005.6 hPa | 3.05 mm | 2.68 m/s, 255° | 2 W/m² | - |
| 1778021789 | 14.44° C | 99% | 1005.8 hPa | 1.78 mm | 2.24 m/s, 279° | 7 W/m² | - |
* Rain latest hour (hover to see other rain measurements)
** Current wind speed in m/s (hover to see current wind gust speed)